DAL7370 KSLC-KLAX

Flight info

Callsign DAL7370
Flight time 1h 36m
Altitude 34000
Route WINEN LAKRR HAKMN ANJLL4
Aircraft A320/M-SDE3FGHIRWY/LB1

Departure

Time 2026-04-23 12:12
Airport Salt Lake City International Airport (KSLC)

Arrival

Time 2026-04-23 13:48
Airport Los Angeles International Airport (KLAX)
Time Latitude Longitude Altitude Speed Heading
2026-04-23 11:55 40.78833 -111.98767 4231 ft 0 kts
2026-04-23 12:02 40.78817 -111.98770 4231 ft 4 kts
2026-04-23 12:02 40.78790 -111.98774 4231 ft 4 kts 14°
2026-04-23 12:03 40.78766 -111.98787 4231 ft 4 kts 41°
2026-04-23 12:03 40.78753 -111.98811 4231 ft 1 kts 84°
2026-04-23 12:03 40.78753 -111.98818 4231 ft 0 kts 84°
2026-04-23 12:06 40.78756 -111.98768 4231 ft 12 kts 84°
2026-04-23 12:06 40.78766 -111.98643 4231 ft 16 kts 84°
2026-04-23 12:06 40.78795 -111.98234 4231 ft 25 kts 84°
2026-04-23 12:07 40.78811 -111.98008 4231 ft 25 kts 84°
2026-04-23 12:07 40.78833 -111.97787 4231 ft 22 kts 85°
2026-04-23 12:07 40.78916 -111.97701 4231 ft 18 kts 354°
2026-04-23 12:07 40.79049 -111.97716 4231 ft 20 kts 355°
2026-04-23 12:08 40.79191 -111.97731 4231 ft 21 kts 354°
2026-04-23 12:08 40.79347 -111.97751 4230 ft 25 kts 355°
2026-04-23 12:08 40.79523 -111.97771 4230 ft 25 kts 355°
2026-04-23 12:08 40.79700 -111.97792 4230 ft 26 kts 355°
2026-04-23 12:09 40.79879 -111.97812 4231 ft 26 kts 354°
2026-04-23 12:09 40.80059 -111.97834 4231 ft 26 kts 355°
2026-04-23 12:09 40.80240 -111.97850 4231 ft 26 kts
2026-04-23 12:09 40.80416 -111.97823 4231 ft 26 kts 354°
2026-04-23 12:10 40.80589 -111.97843 4230 ft 20 kts 354°
2026-04-23 12:10 40.80716 -111.97856 4230 ft 15 kts
2026-04-23 12:10 40.80739 -111.97753 4229 ft 16 kts 115°
2026-04-23 12:10 40.80637 -111.97686 4230 ft 17 kts 175°
2026-04-23 12:11 40.80476 -111.97669 4232 ft 39 kts 175°
2026-04-23 12:11 40.79957 -111.97606 4231 ft 109 kts 175°
2026-04-23 12:11 40.79004 -111.97493 4232 ft 163 kts 175°
2026-04-23 12:11 40.77787 -111.97348 4643 ft 178 kts 173°
2026-04-23 12:12 40.76567 -111.97122 5400 ft 179 kts 171°
2026-04-23 12:12 40.75338 -111.96841 6145 ft 182 kts 172°
2026-04-23 12:12 40.74043 -111.96541 6433 ft 200 kts 172°
2026-04-23 12:12 40.72595 -111.96212 6604 ft 222 kts 173°
2026-04-23 12:13 40.71007 -111.95858 6909 ft 239 kts 174°
2026-04-23 12:13 40.69288 -111.95483 7178 ft 260 kts 174°
2026-04-23 12:13 40.67461 -111.95082 7773 ft 269 kts 173°
2026-04-23 12:13 40.65590 -111.94889 8481 ft 271 kts 184°
2026-04-23 12:14 40.63687 -111.94898 9213 ft 275 kts 185°
2026-04-23 12:14 40.61761 -111.94929 9936 ft 279 kts 185°
2026-04-23 12:14 40.59804 -111.94966 10558 ft 286 kts 185°
2026-04-23 12:14 40.57736 -111.95014 10754 ft 309 kts 185°
2026-04-23 12:15 40.55504 -111.95069 10938 ft 331 kts 185°
2026-04-23 12:15 40.53159 -111.95117 11418 ft 341 kts 185°
2026-04-23 12:15 40.50765 -111.95151 12053 ft 346 kts 185°
2026-04-23 12:15 40.48348 -111.95181 12710 ft 350 kts 185°
2026-04-23 12:16 40.45892 -111.95208 13368 ft 355 kts 184°
2026-04-23 12:16 40.43410 -111.95141 13998 ft 359 kts 182°
2026-04-23 12:16 40.40898 -111.94981 14564 ft 363 kts 181°
2026-04-23 12:16 40.38360 -111.94774 15116 ft 367 kts 180°
2026-04-23 12:17 40.35832 -111.94557 15693 ft 371 kts 180°
2026-04-23 12:17 40.33246 -111.94340 16273 ft 374 kts 180°
2026-04-23 12:17 40.30634 -111.94136 16836 ft 377 kts 181°
2026-04-23 12:17 40.28005 -111.93946 17416 ft 380 kts 182°
2026-04-23 12:18 40.25368 -111.94084 17980 ft 379 kts 191°
2026-04-23 12:18 40.22741 -111.94505 18508 ft 382 kts 191°
2026-04-23 12:18 40.20096 -111.94932 18977 ft 385 kts 191°
2026-04-23 12:18 40.17421 -111.95361 19434 ft 389 kts 191°
2026-04-23 12:19 40.14719 -111.95792 19896 ft 393 kts 190°
2026-04-23 12:19 40.11987 -111.96222 20340 ft 397 kts 190°
2026-04-23 12:19 40.09227 -111.96634 20791 ft 401 kts 189°
2026-04-23 12:19 40.06434 -111.97037 21232 ft 405 kts 189°
2026-04-23 12:20 40.03618 -111.97440 21677 ft 409 kts 189°
2026-04-23 12:20 40.00775 -111.97848 22107 ft 414 kts 189°
2026-04-23 12:20 39.97894 -111.98260 22538 ft 418 kts 188°
2026-04-23 12:20 39.94995 -111.98681 22955 ft 422 kts 188°
2026-04-23 12:21 39.92058 -111.99107 23368 ft 426 kts 188°
2026-04-23 12:21 39.89097 -111.99540 23747 ft 430 kts 188°
2026-04-23 12:21 39.86116 -111.99975 24104 ft 433 kts 188°
2026-04-23 12:21 39.83114 -112.00412 24476 ft 435 kts 188°
2026-04-23 12:22 39.80096 -112.00853 24851 ft 437 kts 188°
2026-04-23 12:22 39.77070 -112.01297 25214 ft 439 kts 188°
2026-04-23 12:22 39.74027 -112.01743 25561 ft 441 kts 188°
2026-04-23 12:22 39.71006 -112.02183 25903 ft 443 kts 188°
2026-04-23 12:23 39.67940 -112.02629 26244 ft 445 kts 188°
2026-04-23 12:23 39.64848 -112.03076 26585 ft 446 kts 188°
2026-04-23 12:23 39.61760 -112.03519 26926 ft 448 kts 187°
2026-04-23 12:23 39.58654 -112.03965 27266 ft 450 kts 188°
2026-04-23 12:24 39.55539 -112.04414 27592 ft 451 kts 188°
2026-04-23 12:24 39.52412 -112.04864 27913 ft 453 kts 188°
2026-04-23 12:24 39.49263 -112.05319 28236 ft 455 kts 188°
2026-04-23 12:24 39.46117 -112.05771 28552 ft 456 kts 188°
2026-04-23 12:25 39.43170 -112.06192 28835 ft 458 kts 188°
2026-04-23 12:25 39.39998 -112.06642 29141 ft 459 kts 188°
2026-04-23 12:25 39.36824 -112.07091 29435 ft 460 kts 188°
2026-04-23 12:25 39.33634 -112.07541 29723 ft 462 kts 188°
2026-04-23 12:26 39.30431 -112.07994 30012 ft 463 kts 188°
2026-04-23 12:26 39.27224 -112.08452 30259 ft 464 kts 189°
2026-04-23 12:26 39.24011 -112.08912 30494 ft 465 kts 189°
2026-04-23 12:26 39.20832 -112.09366 30731 ft 466 kts 189°
2026-04-23 12:27 39.17617 -112.09822 31029 ft 464 kts 191°
2026-04-23 12:27 39.14476 -112.10586 31356 ft 456 kts 200°
2026-04-23 12:27 39.11515 -112.11936 31702 ft 448 kts 209°
2026-04-23 12:27 39.08785 -112.13784 32067 ft 441 kts 215°
2026-04-23 12:28 39.06128 -112.15737 32465 ft 438 kts 215°
2026-04-23 12:28 39.03491 -112.17660 32866 ft 434 kts 215°
2026-04-23 12:28 39.00871 -112.19567 33262 ft 431 kts 215°
2026-04-23 12:28 38.98274 -112.21452 33666 ft 427 kts 216°
2026-04-23 12:29 38.95693 -112.23326 34019 ft 425 kts 216°
2026-04-23 12:29 38.93134 -112.25186 34095 ft 419 kts 216°
2026-04-23 12:29 38.88107 -112.28835 34106 ft 412 kts 216°
2026-04-23 12:30 38.83125 -112.32459 34096 ft 411 kts 217°
2026-04-23 12:30 38.78150 -112.36058 34087 ft 410 kts 217°
2026-04-23 12:31 38.73189 -112.39647 34073 ft 409 kts 217°
2026-04-23 12:31 38.68270 -112.43196 34053 ft 408 kts 217°
2026-04-23 12:32 38.63320 -112.46761 34035 ft 408 kts 217°
2026-04-23 12:32 38.58380 -112.50319 34024 ft 407 kts 218°
2026-04-23 12:33 38.53450 -112.53860 34029 ft 406 kts 218°
2026-04-23 12:33 38.48526 -112.57390 34027 ft 405 kts 218°
2026-04-23 12:34 38.43617 -112.60897 34037 ft 404 kts 218°
2026-04-23 12:34 38.38711 -112.64395 34043 ft 403 kts 218°
2026-04-23 12:35 38.33828 -112.67873 34037 ft 401 kts 219°
2026-04-23 12:35 38.28970 -112.71340 34040 ft 399 kts 219°
2026-04-23 12:36 38.24127 -112.74787 34039 ft 398 kts 219°
2026-04-23 12:36 38.19334 -112.78187 34041 ft 396 kts 219°
2026-04-23 12:37 38.14541 -112.81586 34030 ft 393 kts 220°
2026-04-23 12:37 38.09769 -112.84962 34019 ft 392 kts 220°
2026-04-23 12:38 38.05016 -112.88320 34018 ft 390 kts 220°
2026-04-23 12:38 38.00290 -112.91665 34028 ft 388 kts 220°
2026-04-23 12:39 37.95581 -112.94989 34045 ft 387 kts 220°
2026-04-23 12:39 37.90887 -112.98293 34059 ft 385 kts 220°
2026-04-23 12:40 37.86206 -113.01580 34075 ft 384 kts 220°
2026-04-23 12:40 37.81541 -113.04844 34082 ft 382 kts 221°
2026-04-23 12:41 37.76937 -113.08080 34087 ft 380 kts 221°
2026-04-23 12:41 37.72375 -113.11423 34086 ft 378 kts 222°
2026-04-23 12:42 37.67842 -113.14784 34084 ft 377 kts 222°
2026-04-23 12:42 37.63311 -113.18120 34080 ft 377 kts 222°
2026-04-23 12:43 37.58769 -113.21436 34059 ft 377 kts 222°
2026-04-23 12:43 37.54232 -113.24747 34029 ft 376 kts 222°
2026-04-23 12:44 37.49699 -113.28048 34006 ft 376 kts 222°
2026-04-23 12:44 37.45165 -113.31342 33983 ft 376 kts 222°
2026-04-23 12:45 37.40672 -113.34609 33959 ft 375 kts 222°
2026-04-23 12:45 37.36145 -113.37887 33955 ft 375 kts 222°
2026-04-23 12:46 37.31611 -113.41167 33969 ft 376 kts 222°
2026-04-23 12:46 37.27083 -113.44443 33980 ft 375 kts 222°
2026-04-23 12:47 37.22568 -113.47704 33989 ft 375 kts 222°
2026-04-23 12:47 37.18812 -113.50415 33994 ft 375 kts 222°
2026-04-23 12:48 37.14291 -113.53675 34002 ft 375 kts 222°
2026-04-23 12:48 37.09770 -113.56924 34003 ft 375 kts 222°
2026-04-23 12:49 37.05245 -113.60175 34004 ft 375 kts 222°
2026-04-23 12:49 37.00718 -113.63421 33995 ft 375 kts 222°
2026-04-23 12:50 36.96188 -113.66666 33986 ft 375 kts 221°
2026-04-23 12:50 36.91690 -113.69885 33975 ft 375 kts 221°
2026-04-23 12:51 36.87161 -113.73118 33956 ft 375 kts 221°
2026-04-23 12:51 36.82624 -113.76356 33942 ft 376 kts 221°
2026-04-23 12:52 36.78083 -113.79598 33924 ft 376 kts 221°
2026-04-23 12:52 36.73539 -113.82831 33919 ft 376 kts 221°
2026-04-23 12:53 36.68986 -113.86068 33920 ft 377 kts 221°
2026-04-23 12:53 36.64432 -113.89301 33911 ft 377 kts 221°
2026-04-23 12:54 36.59863 -113.92526 33913 ft 378 kts 221°
2026-04-23 12:54 36.55294 -113.95748 33915 ft 378 kts 220°
2026-04-23 12:55 36.50726 -113.98984 33910 ft 378 kts 220°
2026-04-23 12:55 36.46183 -114.02195 33911 ft 378 kts 220°
2026-04-23 12:56 36.41598 -114.05428 33905 ft 379 kts 220°
2026-04-23 12:56 36.37004 -114.08654 33898 ft 379 kts 220°
2026-04-23 12:57 36.32407 -114.11884 33897 ft 380 kts 220°
2026-04-23 12:57 36.27804 -114.15116 33891 ft 381 kts 220°
2026-04-23 12:58 36.23191 -114.18352 33886 ft 381 kts 220°
2026-04-23 12:58 36.18569 -114.21588 33885 ft 382 kts 219°
2026-04-23 12:59 36.13943 -114.24817 33883 ft 381 kts 219°
2026-04-23 12:59 36.09387 -114.28094 33886 ft 376 kts 225°
2026-04-23 13:00 36.05731 -114.32479 33886 ft 363 kts 236°
2026-04-23 13:00 36.02380 -114.37153 33882 ft 364 kts 236°
2026-04-23 13:01 35.99007 -114.41832 33885 ft 365 kts 235°
2026-04-23 13:01 35.95626 -114.46509 33907 ft 366 kts 235°
2026-04-23 13:02 35.92235 -114.51197 33924 ft 366 kts 235°
2026-04-23 13:02 35.88837 -114.55890 33936 ft 367 kts 235°
2026-04-23 13:03 35.85428 -114.60586 33952 ft 368 kts 235°
2026-04-23 13:03 35.82017 -114.65288 33968 ft 368 kts 234°
2026-04-23 13:04 35.78596 -114.69992 33979 ft 369 kts 234°
2026-04-23 13:04 35.75190 -114.74661 33982 ft 369 kts 234°
2026-04-23 13:05 35.71757 -114.79361 33987 ft 369 kts 234°
2026-04-23 13:05 35.68321 -114.84066 33990 ft 370 kts 234°
2026-04-23 13:06 35.63145 -114.91137 34004 ft 371 kts 234°
2026-04-23 13:07 35.59687 -114.95849 34012 ft 371 kts 234°
2026-04-23 13:07 35.56229 -115.00567 34016 ft 372 kts 234°
2026-04-23 13:08 35.52761 -115.05285 34024 ft 372 kts 234°
2026-04-23 13:08 35.49278 -115.09996 34028 ft 373 kts 233°
2026-04-23 13:09 35.45715 -115.14653 34033 ft 375 kts 233°
2026-04-23 13:09 35.42132 -115.19297 34031 ft 375 kts 233°
2026-04-23 13:10 35.38548 -115.23950 34040 ft 375 kts 233°
2026-04-23 13:10 35.34966 -115.28610 34038 ft 376 kts 233°
2026-04-23 13:11 35.31410 -115.33247 34042 ft 376 kts 233°
2026-04-23 13:11 35.27827 -115.37905 34047 ft 376 kts 233°
2026-04-23 13:12 35.24240 -115.42557 34054 ft 375 kts 233°
2026-04-23 13:12 35.20651 -115.47196 34060 ft 375 kts 232°
2026-04-23 13:13 35.17067 -115.51829 34067 ft 375 kts 233°
2026-04-23 13:13 35.13489 -115.56452 34070 ft 374 kts 233°
2026-04-23 13:14 35.09907 -115.61064 34068 ft 374 kts 232°
2026-04-23 13:14 35.06323 -115.65653 34068 ft 373 kts 232°
2026-04-23 13:15 35.02738 -115.70233 34065 ft 373 kts 232°
2026-04-23 13:15 34.99152 -115.74802 34061 ft 373 kts 232°
2026-04-23 13:16 34.95566 -115.79365 34062 ft 372 kts 232°
2026-04-23 13:16 34.92021 -115.83887 34070 ft 370 kts 233°
2026-04-23 13:17 34.88460 -115.88412 34066 ft 369 kts 232°
2026-04-23 13:17 34.84907 -115.92912 34063 ft 367 kts 233°
2026-04-23 13:18 34.81373 -115.97392 34060 ft 366 kts 233°
2026-04-23 13:18 34.77843 -116.01855 34062 ft 365 kts 233°
2026-04-23 13:19 34.74363 -116.06279 34062 ft 364 kts 233°
2026-04-23 13:19 34.70882 -116.10730 34055 ft 362 kts 233°
2026-04-23 13:20 34.67403 -116.15157 34057 ft 361 kts 233°
2026-04-23 13:20 34.63933 -116.19559 34057 ft 359 kts 233°
2026-04-23 13:21 34.60487 -116.23939 34069 ft 359 kts 233°
2026-04-23 13:21 34.57045 -116.28306 34075 ft 357 kts 233°
2026-04-23 13:21 34.55327 -116.30483 33947 ft 356 kts 233°
2026-04-23 13:22 34.53620 -116.32641 33478 ft 352 kts 233°
2026-04-23 13:22 34.51960 -116.34735 33073 ft 346 kts 233°
2026-04-23 13:22 34.50305 -116.36820 32655 ft 341 kts 232°
2026-04-23 13:22 34.48674 -116.38877 32248 ft 336 kts 232°
2026-04-23 13:23 34.47064 -116.40905 31849 ft 332 kts 232°
2026-04-23 13:23 34.45476 -116.42905 31464 ft 327 kts 232°
2026-04-23 13:23 34.43909 -116.44878 31076 ft 323 kts 232°
2026-04-23 13:23 34.42365 -116.46856 30616 ft 320 kts 236°
2026-04-23 13:24 34.41125 -116.49057 30146 ft 315 kts 246°
2026-04-23 13:24 34.40160 -116.51422 29659 ft 312 kts 247°
2026-04-23 13:24 34.39200 -116.53763 29218 ft 309 kts 246°
2026-04-23 13:24 34.38241 -116.56080 28789 ft 305 kts 246°
2026-04-23 13:25 34.37293 -116.58367 28377 ft 302 kts 247°
2026-04-23 13:25 34.36359 -116.60623 27969 ft 298 kts 247°
2026-04-23 13:25 34.35433 -116.62863 27569 ft 295 kts 247°
2026-04-23 13:25 34.34519 -116.65077 27173 ft 293 kts 247°
2026-04-23 13:26 34.33619 -116.67253 26780 ft 292 kts 247°
2026-04-23 13:26 34.32718 -116.69449 26366 ft 291 kts 247°
2026-04-23 13:26 34.31822 -116.71672 25960 ft 290 kts 248°
2026-04-23 13:26 34.30959 -116.73834 25544 ft 289 kts 248°
2026-04-23 13:27 34.30087 -116.76020 25120 ft 289 kts 248°
2026-04-23 13:27 34.29216 -116.78206 24696 ft 288 kts 248°
2026-04-23 13:27 34.28345 -116.80386 24268 ft 288 kts 248°
2026-04-23 13:27 34.27471 -116.82565 23832 ft 287 kts 248°
2026-04-23 13:28 34.26596 -116.84742 23357 ft 288 kts 248°
2026-04-23 13:28 34.25719 -116.86913 22905 ft 287 kts 248°
2026-04-23 13:28 34.24844 -116.89075 22489 ft 286 kts 248°
2026-04-23 13:28 34.23973 -116.91226 22071 ft 285 kts 248°
2026-04-23 13:29 34.23104 -116.93370 21654 ft 284 kts 248°
2026-04-23 13:29 34.22238 -116.95506 21250 ft 283 kts 248°
2026-04-23 13:29 34.21375 -116.97637 20851 ft 282 kts 248°
2026-04-23 13:29 34.20690 -116.99843 20458 ft 281 kts 255°
2026-04-23 13:30 34.20086 -117.02090 20051 ft 281 kts 254°
2026-04-23 13:30 34.19486 -117.04316 19666 ft 278 kts 254°
2026-04-23 13:30 34.18885 -117.06537 19282 ft 279 kts 255°
2026-04-23 13:30 34.18282 -117.08764 18892 ft 279 kts 255°
2026-04-23 13:31 34.17678 -117.11001 18462 ft 282 kts 254°
2026-04-23 13:31 34.17068 -117.13256 18009 ft 283 kts 254°
2026-04-23 13:31 34.16456 -117.15511 17604 ft 282 kts 254°
2026-04-23 13:31 34.15843 -117.17758 17227 ft 282 kts 254°
2026-04-23 13:32 34.15235 -117.19968 16847 ft 281 kts 254°
2026-04-23 13:32 34.14616 -117.22208 16474 ft 281 kts 254°
2026-04-23 13:32 34.14001 -117.24440 16100 ft 280 kts 254°
2026-04-23 13:32 34.13387 -117.26669 15730 ft 280 kts 255°
2026-04-23 13:33 34.12772 -117.28903 15360 ft 280 kts 255°
2026-04-23 13:33 34.12158 -117.31127 14994 ft 279 kts 255°
2026-04-23 13:33 34.11544 -117.33347 14636 ft 279 kts 255°
2026-04-23 13:33 34.10930 -117.35565 14269 ft 279 kts 255°
2026-04-23 13:34 34.10324 -117.37773 13991 ft 276 kts 256°
2026-04-23 13:34 34.09752 -117.39995 13932 ft 277 kts 256°
2026-04-23 13:34 34.09201 -117.42217 13876 ft 276 kts 257°
2026-04-23 13:34 34.08651 -117.44448 13684 ft 277 kts 257°
2026-04-23 13:35 34.08099 -117.46675 13415 ft 277 kts 256°
2026-04-23 13:35 34.07553 -117.48867 13159 ft 276 kts 256°
2026-04-23 13:35 34.07042 -117.51096 12904 ft 276 kts 259°
2026-04-23 13:35 34.06614 -117.53350 12650 ft 275 kts 261°
2026-04-23 13:36 34.06221 -117.55607 12466 ft 275 kts 261°
2026-04-23 13:36 34.05836 -117.57873 12316 ft 276 kts 261°
2026-04-23 13:36 34.05446 -117.60140 12163 ft 276 kts 261°
2026-04-23 13:36 34.05050 -117.62410 12009 ft 276 kts 261°
2026-04-23 13:37 34.04650 -117.64678 11679 ft 276 kts 261°
2026-04-23 13:37 34.04244 -117.66938 11333 ft 276 kts 261°
2026-04-23 13:37 34.03835 -117.69200 10997 ft 276 kts 261°
2026-04-23 13:37 34.03425 -117.71460 10648 ft 276 kts 260°
2026-04-23 13:38 34.03013 -117.73718 10296 ft 275 kts 260°
2026-04-23 13:38 34.02601 -117.75973 9942 ft 275 kts 261°
2026-04-23 13:38 34.02194 -117.78216 9570 ft 274 kts 260°
2026-04-23 13:38 34.01793 -117.80434 9220 ft 274 kts 260°
2026-04-23 13:39 34.01387 -117.82676 8869 ft 274 kts 260°
2026-04-23 13:39 34.00976 -117.84922 8522 ft 274 kts 260°
2026-04-23 13:39 34.00566 -117.87161 8160 ft 274 kts 260°
2026-04-23 13:39 34.00154 -117.89398 7807 ft 271 kts 260°
2026-04-23 13:40 33.99752 -117.91597 7471 ft 266 kts 260°
2026-04-23 13:40 33.99364 -117.93719 7145 ft 253 kts 260°
2026-04-23 13:40 33.98993 -117.95745 6828 ft 246 kts 260°
2026-04-23 13:40 33.98749 -117.97074 6630 ft 244 kts 260°
2026-04-23 13:41 33.98262 -117.99728 6202 ft 241 kts 260°
2026-04-23 13:41 33.98023 -118.01031 5997 ft 239 kts 260°
2026-04-23 13:41 33.97639 -118.02981 5733 ft 238 kts 254°
2026-04-23 13:41 33.97179 -118.04771 5546 ft 238 kts 259°
2026-04-23 13:42 33.96891 -118.06798 5245 ft 236 kts 265°
2026-04-23 13:42 33.96699 -118.08757 4938 ft 235 kts 266°
2026-04-23 13:42 33.96448 -118.11337 4519 ft 233 kts 265°
2026-04-23 13:42 33.96318 -118.12644 4301 ft 232 kts 265°
2026-04-23 13:43 33.96126 -118.14562 3988 ft 226 kts 265°
2026-04-23 13:43 33.95942 -118.16403 3696 ft 217 kts 265°
2026-04-23 13:43 33.95765 -118.18166 3425 ft 208 kts 265°
2026-04-23 13:43 33.95594 -118.19878 3155 ft 205 kts 264°
2026-04-23 13:44 33.95424 -118.21572 2882 ft 204 kts 264°
2026-04-23 13:44 33.95254 -118.23270 2638 ft 202 kts 264°
2026-04-23 13:44 33.95088 -118.24913 2349 ft 195 kts 264°
2026-04-23 13:44 33.94930 -118.26482 2079 ft 183 kts 264°
2026-04-23 13:45 33.94782 -118.27944 1848 ft 168 kts 263°
2026-04-23 13:45 33.94648 -118.29271 1633 ft 153 kts 263°
2026-04-23 13:45 33.94522 -118.30523 1425 ft 148 kts 263°
2026-04-23 13:45 33.94398 -118.31747 1228 ft 147 kts 263°
2026-04-23 13:46 33.94275 -118.32959 1031 ft 146 kts 263°
2026-04-23 13:46 33.94153 -118.34162 831 ft 145 kts 263°
2026-04-23 13:46 33.94031 -118.35360 635 ft 144 kts 263°
2026-04-23 13:46 33.93910 -118.36555 430 ft 143 kts 263°
2026-04-23 13:47 33.93786 -118.37748 258 ft 145 kts 263°
2026-04-23 13:47 33.93663 -118.38945 119 ft 141 kts 264°
2026-04-23 13:47 33.93563 -118.39968 111 ft 100 kts 263°
2026-04-23 13:47 33.93498 -118.40611 112 ft 58 kts 263°
2026-04-23 13:48 33.93480 -118.40937 113 ft 22 kts 277°
2026-04-23 13:48 33.93515 -118.41111 109 ft 18 kts 292°
2026-04-23 13:48 33.93545 -118.41233 106 ft 10 kts 294°
2026-04-23 13:48 33.93574 -118.41256 107 ft 1 kts 341°
2026-04-23 13:49 33.93598 -118.41261 108 ft 10 kts 352°
2026-04-23 13:49 33.93677 -118.41274 109 ft 12 kts 353°
2026-04-23 13:49 33.93775 -118.41255 101 ft 18 kts 14°
2026-04-23 13:49 33.93916 -118.41269 96 ft 22 kts 352°
2026-04-23 13:50 33.94077 -118.41293 95 ft 24 kts 353°
2026-04-23 13:50 33.94250 -118.41318 96 ft 26 kts 353°
2026-04-23 13:50 33.94427 -118.41344 95 ft 26 kts 353°
2026-04-23 13:50 33.94595 -118.41370 95 ft 19 kts 352°
2026-04-23 13:51 33.94688 -118.41311 96 ft 18 kts 81°
2026-04-23 13:51 33.94720 -118.41165 97 ft 19 kts 71°
2026-04-23 13:51 33.94739 -118.41012 97 ft 19 kts 82°
2026-04-23 13:51 33.94753 -118.40854 96 ft 19 kts 83°
2026-04-23 13:52 33.94772 -118.40690 96 ft 20 kts 82°
2026-04-23 13:52 33.94747 -118.40578 98 ft 14 kts 168°
2026-04-23 13:52 33.94665 -118.40567 97 ft 8 kts 172°
2026-04-23 13:52 33.94647 -118.40594 95 ft 4 kts 256°
2026-04-23 13:53 33.94643 -118.40624 95 ft 3 kts 262°
2026-04-23 13:53 33.94641 -118.40646 95 ft 2 kts 263°
2026-04-23 13:53 33.94640 -118.40650 95 ft 0 kts 263°